DW0465 Weather Reports


time (UTC)temp
C
wind
direction
speed
KPH
gust
KPH
rain 1hr
cm
rain 24hr
cm
rain mn
cm
humidity
%
barometer
mb
20260502151606 15 175 0.0 0.0 0.00 0.00 0.00 25 1015.4
20260502123016 2 209 0.0 0.0 0.00 0.00 0.00 49 1016.2
20260502121511 2 187 0.0 1.6 0.00 0.00 0.00 51 1016.1
20260502114508 2 184 0.0 4.8 0.00 0.00 0.00 52 1016.3
20260502113007 3 184 0.0 12.9 0.00 0.00 0.00 47 1016.2
20260502111515 3 152 0.0 6.4 0.00 0.00 0.00 48 1016.4
20260502110009 3 205 0.0 1.6 0.00 0.00 0.00 49 1016.6
20260502104503 3 192 0.0 1.6 0.00 0.00 0.00 49 1016.5
20260502103003 3 178 0.0 3.2 0.00 0.00 0.00 50 1016.5
20260502101503 3 200 0.0 1.6 0.00 0.00 0.00 51 1016.5
20260502090106 2 234 0.0 0.0 0.00 0.00 0.00 57 1016.9
20260502070040 3 223 0.0 0.0 0.00 0.00 0.00 53 1017.3
20260502064539 3 180 0.0 0.0 0.00 0.00 0.00 53 1017.3
20260502063037 3 215 0.0 0.0 0.00 0.00 0.00 51 1017.4
20260502061534 4 199 0.0 0.0 0.00 0.00 0.00 49 1017.5
20260502060031 5 238 0.0 1.6 0.00 0.00 0.00 48 1017.4
20260502054528 5 186 0.0 1.6 0.00 0.00 0.00 46 1017.5
20260502053028 6 191 0.0 1.6 0.00 0.00 0.00 45 1017.7
20260502051530 6 194 0.0 8.0 0.00 0.00 0.00 43 1017.7
20260502050035 6 194 0.0 3.2 0.00 0.00 0.00 43 1017.8
20260502044526 7 204 0.0 4.8 0.00 0.00 0.00 42 1017.8
20260502043026 7 188 0.0 1.6 0.00 0.00 0.00 41 1017.8
20260502041532 7 190 0.0 3.2 0.00 0.00 0.00 40 1018.1
20260502040023 8 178 0.0 0.0 0.00 0.00 0.00 38 1018.1
20260502034523 8 171 0.0 0.0 0.00 0.00 0.00 34 1018.0
20260502033026 8 146 0.0 0.0 0.00 0.00 0.00 33 1017.7
20260502031522 8 143 0.0 0.0 0.00 0.00 0.00 34 1017.6
20260502030021 9 143 0.0 0.0 0.00 0.00 0.00 32 1017.3
20260502024521 11 144 0.0 0.0 0.00 0.00 0.00 30 1017.0
20260502023020 12 142 0.0 0.0 0.00 0.00 0.00 27 1016.9
20260502021521 13 140 0.0 0.0 0.00 0.00 0.00 24 1016.9
20260502020020 14 120 0.0 4.8 0.00 0.00 0.00 23 1016.8
20260502014526 15 117 0.0 1.6 0.00 0.00 0.00 21 1016.8
20260502013117 15 94 0.0 1.6 0.00 0.00 0.00 21 1016.6
20260502011516 16 76 0.0 1.6 0.00 0.00 0.00 20 1016.6
20260502010022 16 78 0.0 0.0 0.00 0.00 0.00 19 1016.6
20260502004514 16 32 0.0 0.0 0.00 0.00 0.00 20 1016.6
20260502003113 16 73 0.0 3.2 0.00 0.00 0.00 18 1016.8
20260502001512 16 11 0.0 0.0 0.00 0.00 0.00 17 1016.7
20260502000009 16 5 0.0 1.6 0.00 0.00 0.00 18 1017.0
20260501234507 16 343 0.0 1.6 0.00 0.00 0.00 19 1017.1
20260501233006 16 31 0.0 3.2 0.00 0.00 0.00 21 1017.2
20260501231505 16 9 0.0 4.8 0.00 0.00 0.00 20 1017.3
20260501230003 16 44 0.0 1.6 0.00 0.00 0.00 19 1017.3
20260501224503 16 338 0.0 6.4 0.00 0.00 0.00 19 1017.5
20260501223142 16 5 0.0 0.0 0.00 0.00 0.00 19 1017.6
20260501221559 15 17 0.0 1.6 0.00 0.00 0.00 20 1017.9
20260501220057 15 38 0.0 4.8 0.00 0.00 0.00 20 1018.2
20260501214556 15 63 0.0 1.6 0.00 0.00 0.00 21 1018.3
20260501213100 15 90 0.0 4.8 0.00 0.00 0.00 20 1018.5
20260501211554 15 47 0.0 1.6 0.00 0.00 0.00 19 1018.7
20260501210050 15 341 0.0 0.0 0.00 0.00 0.00 23 1018.7
20260501204607 15 74 0.0 0.0 0.00 0.00 0.00 22 1018.9
20260501203148 15 82 0.0 4.8 0.00 0.00 0.00 21 1019.0
20260501201545 14 303 0.0 3.2 0.00 0.00 0.00 22 1019.1
20260501200043 14 344 0.0 3.2 0.00 0.00 0.00 23 1019.2
20260501194540 13 118 0.0 4.8 0.00 0.00 0.00 22 1019.3
20260501193039 14 58 0.0 6.4 0.00 0.00 0.00 22 1019.6
20260501191539 13 13 0.0 3.2 0.00 0.00 0.00 24 1019.6
20260501190035 13 39 0.0 6.4 0.00 0.00 0.00 25 1019.6
20260501184531 13 136 0.0 0.0 0.00 0.00 0.00 24 1019.7
20260501183030 13 65 0.0 3.2 0.00 0.00 0.00 25 1019.9
20260501181527 13 335 0.0 3.2 0.00 0.00 0.00 24 1020.0
20260501180021 12 26 0.0 4.8 0.00 0.00 0.00 25 1020.3
20260501174516 12 344 0.0 6.4 0.00 0.00 0.00 25 1020.5
20260501173013 12 76 0.0 3.2 0.00 0.00 0.00 26 1020.5
20260501171510 12 33 0.0 6.4 0.00 0.00 0.00 26 1020.5
20260501170005 12 18 0.0 1.6 0.00 0.00 0.00 25 1020.5
20260501164502 11 355 0.0 4.8 0.00 0.00 0.00 26 1020.5
20260501163101 11 337 0.0 4.8 0.00 0.00 0.00 23 1020.4
20260501161606 12 85 1.6 12.9 0.00 0.00 0.00 26 1020.4